SCP
-0 -0 -0 -0 -0 -0 -0 -0 -0 -0 -0 -0 -0 -0 -0 -0 -0 -0 -0 -0 -0 -0 -0 -0 -0 -0 -0 -0 -0 -0 -0 -0 -0 0 0 0 0 -0 -0 0 -0 -0 -0
-0 -0 -0 -0 -0 -0 0 0 0 -0 -0 -0 -0 -0 -0 -0 -0 -0 -0 -0 -0 -0 -0 -0 -0 -0 -0 -0 -0 -0 -0 -0 -0 0 0 0 0 0 -0 -0 0 -0 -0
-0 -0 -0 -0 0 0 0 0 0 -0 -0 -0 -0 -0 -0 -0 -0 -0 -0 -0 -0 -0 -0 -0 -0 -0 -0 -0 -0 -0 -0 0 -0 0 0 -0 -0 -0 -0 0 0 0 0
-0 -0 -0 -0 0 0 0 0 0 -0 -0 -0 -0 -0 -0 -0 -0 -0 -0 -0 -0 -0 -0 -0 -0 -0 -0 -0 0 -0 -0 -0 -0 -0 0 -0 -0 -0 0 0 0 0 0
-0 -0 -0 -0 0 0 0 0 0 -0 -0 -0 -0 -0 -0 -0 -0 -0 -0 -0 -0 -0 -0 -0 -0 -0 -0 0 0 0 -0 -0 -0 0 -0 -0 -0 0 0 0 0 0 0
-0 -0 -0 -0 0 0 0 0 0 0 -0 -0 -0 -0 -0 -0 -0 -0 -0 -0 -0 -0 -0 -0 -0 0 0 0 0 0 0 0 -0 -0 0 0 0 0 0 0 0 0 0
0 0 0 -0 0 0 0 0 0 0 0 0 0 0 -0 -0 -0 -0 -0 -0 0 0 0 0 0 0 0 0 0 -0 -0 -0 -0 -0 -0 0 0 0 0 0 0 0 0
-0 0 0 0 0 0 0 0 0 0 0 0 0 0 0 0 -0 -0 0 0 0 0 0 0 0 0 0 0 0 -0 -0 -0 -0 -0 -0 0 0 0 0 0 0 0 0
0 0 0 0 0 0 0 0 0 0 0 0 0 0 0 0 0 0 0 0 0 0 0 0 0 0 0 0 -0 -0 -0 0 -0 -0 -0 0 0 0 0 0 0 0 0
0 0 0 0 0 0 0 0 0 0 0 0 0 0 0 0 0 0 0 0 0 0 0 0 0 0 0 -0 0 0 0 0 0 -0 -0 0 0 0 0 0 -0 -0 0
0 0 0 0 0 0 0 0 0 0 0 0 0 0 0 0 0 0 0 0 0 0 0 0 0 -0 -0 -0 -0 -0 -0 0 -0 -0 0 0 0 0 0 0 0 -0 -0
0 0 0 0 0 0 0 0 0 0 0 0 0 0 0 0 0 0 0 0 0 0 0 0 -0 -0 -0 -0 0 -0 -0 -0 -0 0 0 0 0 0 0 -0 -0 -0 -0
0 0 0 0 0 0 0 0 0 0 0 0 0 0 0 0 0 0 0 0 0 0 0 0 0 0 0 0 0 0 0 0 0 0 -0 -0 0 0 0 -0 -0 -0 -0
0 0 0 0 0 0 0 0 0 0 0 0 0 0 0 0 0 0 0 0 0 0 0 0 0 0 0 0 0 0 0 0 0 0 0 -0 -0 -0 -0 -0 -0 -0 -0
0 0 0 0 0 0 0 0 0 0 0 0 0 0 0 0 0 0 0 0 0 0 0 0 0 0 0 0 0 0 0 0 0 0 0 0 0 0 0 0 0 0 0
0 0 0 0 0 0 0 0 0 0 0 0 0 0 0 0 0 0 0 0 0 0 0 0 0 0 0 0 0 0 0 0 0 0 0 0 0 0 0 0 0 0 0
0 0 0 0 0 0 0 0 0 0 0 0 0 0 0 0 0 0 0 0 0 0 0 0 0 0 0 0 0 0 0 0 0 0 0 0 0 0 0 0 0 0 0
0 0 0 0 0 0 0 0 0 0 0 0 0 0 0 0 0 0 0 0 0 0 0 0 0 0 0 0 0 0 0 0 0 0 0 0 0 0 0 0 0 0 0
0 0 0 0 0 0 0 0 0 0 0 0 0 0 0 0 0 0 0 0 0 0 0 0 0 0 0 0 0 0 0 0 0 0 0 0 0 0 0 0 0 0 0
0 0 0 0 0 0 0 0 0 0 0 0 0 0 0 0 0 0 0 0 0 0 0 0 0 0 0 0 0 0 0 0 0 0 0 0 0 0 0 0 0 0 0
0 0 0 0 0 0 0 0 0 0 0 0 0 0 0 0 0 0 0 0 0 0 0 0 0 0 0 0 0 0 0 0 0 0 0 0 0 0 0 0 0 0 0
0 0 0 0 0 0 0 0 0 0 0 0 0 0 0 0 0 0 0 0 0 0 0 0 0 0 0 0 0 0 0 0 0 0 0 0 0 0 0 0 0 0 0
0 0 0 0 0 0 0 0 0 0 0 0 0 0 0 0 0 0 0 0 0 0 0 0 0 0 0 0 0 0 0 0 0 0 0 0 0 0 0 0 0 0 0
0 0 0 0 0 0 0 0 0 0 0 0 0 0 0 0 0 0 0 0 0 0 0 0 0 0 0 0 0 0 0 0 0 0 0 0 0 0 0 0 0 0 0
0 0 0 0 0 0 0 0 0 0 0 0 0 0 0 0 0 0 0 0 0 0 0 0 0 0 0 0 0 0 0 0 0 0 0 0 0 0 0 0 0 0 0
0 0 0 0 0 0 0 0 0 0 0 0 0 0 0 0 0 0 0 0 0 0 0 0 0 0 0 0 0 0 0 0 0 0 0 0 0 0 0 0 0 0 0
Wind_Speed_500mb
50 45 41 40 38 35 31 33 49 47 44 42 37 28 19 14 11 11 14 17 22 27 27 27 28 30 32 31 35 35 35 36 30 26 27 30 25 30 31 27 24 22 20
49 43 41 40 38 37 33 40 52 48 41 36 29 23 18 13 10 11 14 19 23 25 26 27 29 31 33 35 36 34 33 34 35 31 26 22 22 23 25 25 25 25 23
40 44 42 41 40 40 38 42 51 46 37 32 28 23 18 11 9 11 16 19 23 25 25 28 29 30 31 33 33 31 27 27 29 29 28 21 18 19 21 23 22 22 21
35 45 45 42 41 43 42 44 46 43 35 30 27 21 14 10 8 12 16 19 22 24 24 25 27 28 29 29 28 27 24 20 25 27 24 21 18 18 18 18 17 16 15
33 45 44 42 43 45 48 47 41 38 37 31 27 20 13 9 7 12 16 19 24 24 21 22 25 26 26 25 23 21 21 16 16 20 20 18 17 16 14 13 13 13 13
38 45 44 41 44 47 50 51 42 41 38 31 23 19 14 8 8 12 14 15 18 24 22 20 20 20 21 21 19 16 14 15 13 14 16 15 15 13 13 13 12 10 9
44 47 45 44 44 44 48 51 43 38 36 29 23 19 13 8 7 10 14 14 15 17 16 17 16 16 17 16 15 12 10 11 10 11 12 11 11 11 10 10 10 9 9
43 49 48 47 43 42 46 48 43 38 36 26 23 18 14 11 9 9 15 15 12 13 13 13 12 12 12 12 11 9 7 5 6 6 8 8 10 11 10 10 10 11 11
40 50 51 51 48 44 47 45 41 42 35 30 24 20 16 15 12 12 12 15 15 13 11 11 9 9 8 8 7 5 3 3 4 4 5 7 9 12 14 13 12 11 11
37 50 54 55 54 50 48 47 46 42 35 28 26 22 20 18 18 15 17 16 16 14 11 9 9 8 7 7 6 3 2 2 2 5 6 8 11 14 16 15 14 14 14
41 43 55 57 58 55 52 51 48 41 36 31 28 26 26 24 22 18 16 18 18 14 11 9 8 7 8 7 4 3 4 5 3 5 5 7 8 12 14 14 14 15 15
54 51 52 57 60 61 58 54 50 44 40 37 34 32 29 26 23 21 18 19 18 15 13 11 11 10 9 8 8 8 7 7 7 5 4 5 6 9 11 14 15 16 17
57 53 50 59 60 63 63 59 55 50 46 41 35 32 30 28 25 22 19 19 17 16 15 14 13 11 10 10 10 11 9 9 7 7 7 9 10 9 11 13 14 15 16
64 56 51 56 64 63 61 60 56 52 48 42 35 32 34 34 33 28 22 20 17 18 17 16 15 13 11 11 10 9 10 8 9 9 10 11 11 13 14 14 14 14 14
65 61 54 56 65 65 62 60 57 53 49 42 38 34 35 36 34 29 24 24 23 20 19 17 16 15 15 13 11 12 12 10 11 12 11 12 13 11 10 12 13 14 14
68 65 58 58 58 66 65 63 59 55 52 49 44 38 34 34 33 29 27 25 25 22 19 19 17 17 16 16 15 16 13 12 11 10 10 12 13 10 7 9 10 11 14
75 66 64 60 55 63 64 61 56 57 57 57 52 44 34 32 34 31 31 31 26 23 21 21 20 20 20 20 17 17 16 16 16 14 14 13 10 5 2 7 11 16 19
81 76 68 65 65 62 63 58 56 53 53 56 47 44 38 33 34 32 34 31 25 24 24 24 23 23 23 22 21 20 22 22 20 18 19 14 10 9 12 10 14 16 23
82 80 77 73 73 70 63 64 66 62 57 52 48 45 46 38 34 38 37 31 31 30 30 27 25 25 25 25 24 25 26 22 20 22 23 19 13 6 8 13 16 21 27
81 84 82 78 75 76 69 71 72 70 65 63 60 56 55 46 39 40 39 35 36 35 32 30 28 28 26 24 22 24 30 22 22 24 20 17 14 8 12 18 17 31 27
86 85 85 85 83 83 80 83 81 83 70 66 66 61 58 54 46 43 43 42 41 40 35 33 31 27 26 20 26 26 27 25 13 21 21 17 8 9 15 20 23 32 30
71 80 91 90 87 86 85 85 87 83 74 67 68 67 66 59 50 47 47 47 47 44 40 37 30 30 27 27 30 28 25 18 10 4 9 18 15 19 21 23 28 29 33
81 78 82 90 93 88 85 81 90 81 72 75 77 76 71 66 57 53 48 45 46 47 46 37 29 32 36 35 37 32 13 14 16 17 22 25 25 25 24 26 28 31 34
52 82 87 88 90 90 87 86 86 95 98 95 88 85 79 70 62 56 51 47 45 45 44 37 36 41 40 44 43 43 44 40 23 19 30 32 30 22 18 24 27 37 39
46 57 84 92 92 96 94 89 86 88 89 81 79 83 87 76 69 65 55 54 49 48 43 44 43 47 50 50 44 45 45 47 45 53 26 17 11 15 22 30 37 25 18
28 33 70 80 85 94 93 94 89 85 82 78 78 70 82 85 79 76 62 57 55 51 51 49 52 53 51 52 54 54 55 46 44 27 20 15 18 20 24 26 17 17 23
Wind_Direction_500mb
180 184 181 180 177 176 169 154 146 139 143 143 140 138 138 125 110 102 105 111 113 115 107 109 108 101 104 104 108 102 94 95 97 103 94 98 86 75 80 86 90 87 85
170 182 182 180 179 177 170 157 152 146 150 151 150 147 141 131 115 108 114 117 114 113 112 108 105 102 104 109 109 105 100 96 91 95 101 87 88 79 74 79 79 78 76
175 176 181 180 180 177 170 160 159 154 161 161 157 151 146 134 118 122 124 121 118 119 115 113 110 108 108 111 112 105 99 99 96 92 91 88 80 78 75 75 77 74 72
176 176 179 180 181 177 170 162 161 162 166 169 162 155 150 143 124 135 134 126 119 120 117 116 113 113 115 118 115 110 101 88 96 92 85 80 72 70 70 72 74 78 79
183 178 178 181 182 177 171 166 166 172 172 172 163 166 163 146 134 143 138 134 125 122 126 122 120 118 119 121 121 118 116 110 86 90 78 73 69 62 60 58 57 55 51
183 179 179 179 179 177 173 171 167 167 174 175 180 177 174 159 149 160 156 145 136 139 131 131 124 121 119 118 120 114 97 98 81 78 76 68 64 58 48 43 40 40 35
182 180 178 175 175 176 175 176 177 178 185 183 174 175 180 180 178 188 178 158 147 137 135 128 124 121 117 115 113 111 101 87 78 74 73 58 52 44 34 25 15 11 9
186 181 178 175 173 176 176 178 181 184 183 182 182 190 198 209 209 187 184 173 163 152 139 132 127 120 119 122 121 121 123 111 96 63 70 61 37 28 11 2 354 350 350
187 185 181 177 177 179 180 181 181 182 186 190 194 202 220 227 218 197 178 181 180 168 155 145 136 133 133 134 133 132 116 84 72 21 34 32 12 4 353 344 345 341 337
187 191 185 183 183 183 182 186 184 187 197 205 207 214 222 233 236 220 201 190 190 185 174 166 161 160 164 166 165 159 162 102 25 332 343 354 358 357 351 343 336 336 334
192 192 192 190 188 188 188 190 193 201 205 212 224 228 231 231 227 222 211 210 202 202 194 194 195 199 197 192 184 198 197 206 251 291 320 342 346 346 342 343 340 333 328
196 192 198 197 193 192 194 196 200 206 214 221 228 232 230 223 220 223 222 214 209 208 209 214 211 212 205 198 194 207 220 238 265 275 303 307 321 328 327 324 326 325 322
202 199 197 204 201 199 200 201 206 212 219 224 227 226 220 216 212 214 217 211 208 208 221 224 222 219 210 210 218 228 242 255 270 292 300 296 306 311 312 311 315 317 318
205 207 205 206 205 205 206 208 212 215 216 220 218 214 215 215 216 214 211 216 221 224 223 228 228 230 228 242 252 266 272 274 281 282 285 296 304 308 308 308 312 314 312
210 210 209 204 206 208 208 210 211 214 216 217 216 216 217 220 223 221 222 231 232 226 223 228 228 232 237 252 264 266 267 275 281 287 295 300 304 306 312 326 334 331 327
216 216 213 208 208 209 210 210 212 214 216 217 219 217 215 222 229 233 233 238 230 227 225 227 231 236 245 252 255 264 267 266 268 278 292 297 307 312 340 340 332 337 335
218 221 218 215 210 213 211 209 213 221 216 220 218 216 214 221 227 233 235 236 232 231 233 236 242 246 251 258 258 255 259 265 267 268 275 285 284 234 301 325 324 319 319
219 222 220 219 217 216 216 208 213 224 218 217 221 218 214 222 225 226 225 229 229 232 238 243 247 253 259 260 260 259 259 265 269 272 275 268 259 232 246 284 314 311 314
220 220 221 221 221 220 221 213 215 220 220 222 222 224 226 224 226 228 227 226 227 231 236 240 246 254 256 260 264 268 276 275 266 271 270 247 241 195 278 302 307 322 314
222 224 222 222 225 223 224 217 218 220 218 219 220 223 225 222 227 234 232 229 230 233 237 243 250 256 261 264 278 282 289 296 282 269 257 238 218 274 290 305 307 323 317
221 223 222 222 225 222 223 221 217 219 217 218 221 224 231 233 235 236 234 231 232 237 242 247 250 253 255 263 272 286 290 307 269 272 235 211 178 305 294 302 302 314 305
227 224 227 224 224 225 226 226 222 221 223 221 223 226 228 234 234 236 235 234 235 238 240 243 246 246 251 245 255 269 285 285 265 187 213 206 228 253 253 271 294 296 298
235 227 228 227 226 224 227 225 227 223 222 223 225 225 225 231 235 235 236 237 238 240 241 242 238 248 255 257 248 246 244 232 218 249 228 223 232 237 249 264 285 299 305
256 234 234 231 229 227 225 225 225 226 225 232 229 224 225 229 234 236 237 238 238 237 235 236 240 245 253 251 249 246 243 253 257 247 222 222 219 237 268 286 303 306 299
267 248 235 234 234 231 226 227 227 229 237 235 230 229 226 226 231 236 239 238 239 234 234 235 240 245 250 251 248 251 251 251 259 261 223 188 215 259 287 302 302 295 282
244 262 234 236 238 235 234 229 230 233 236 233 231 231 228 224 229 235 232 235 243 237 236 240 242 243 243 247 249 253 258 264 257 236 201 236 269 288 299 299 285 291 303
Wind_Speed_850mb
50 45 41 40 38 35 31 33 49 47 44 42 37 28 19 14 11 11 14 17 22 27 27 27 28 30 32 31 35 35 35 36 30 26 27 30 25 30 31 27 24 22 20
49 43 41 40 38 37 33 40 52 48 41 36 29 23 18 13 10 11 14 19 23 25 26 27 29 31 33 35 36 34 33 34 35 31 26 22 22 23 25 25 25 25 23
40 44 42 41 40 40 38 42 51 46 37 32 28 23 18 11 9 11 16 19 23 25 25 28 29 30 31 33 33 31 27 27 29 29 28 21 18 19 21 23 22 22 21
35 45 45 42 41 43 42 44 46 43 35 30 27 21 14 10 8 12 16 19 22 24 24 25 27 28 29 29 28 27 24 20 25 27 24 21 18 18 18 18 17 16 15
33 45 44 42 43 45 48 47 41 38 37 31 27 20 13 9 7 12 16 19 24 24 21 22 25 26 26 25 23 21 21 16 16 20 20 18 17 16 14 13 13 13 13
38 45 44 41 44 47 50 51 42 41 38 31 23 19 14 8 8 12 14 15 18 24 22 20 20 20 21 21 19 16 14 15 13 14 16 15 15 13 13 13 12 10 9
44 47 45 44 44 44 48 51 43 38 36 29 23 19 13 8 7 10 14 14 15 17 16 17 16 16 17 16 15 12 10 11 10 11 12 11 11 11 10 10 10 9 9
43 49 48 47 43 42 46 48 43 38 36 26 23 18 14 11 9 9 15 15 12 13 13 13 12 12 12 12 11 9 7 5 6 6 8 8 10 11 10 10 10 11 11
40 50 51 51 48 44 47 45 41 42 35 30 24 20 16 15 12 12 12 15 15 13 11 11 9 9 8 8 7 5 3 3 4 4 5 7 9 12 14 13 12 11 11
37 50 54 55 54 50 48 47 46 42 35 28 26 22 20 18 18 15 17 16 16 14 11 9 9 8 7 7 6 3 2 2 2 5 6 8 11 14 16 15 14 14 14
41 43 55 57 58 55 52 51 48 41 36 31 28 26 26 24 22 18 16 18 18 14 11 9 8 7 8 7 4 3 4 5 3 5 5 7 8 12 14 14 14 15 15
54 51 52 57 60 61 58 54 50 44 40 37 34 32 29 26 23 21 18 19 18 15 13 11 11 10 9 8 8 8 7 7 7 5 4 5 6 9 11 14 15 16 17
57 53 50 59 60 63 63 59 55 50 46 41 35 32 30 28 25 22 19 19 17 16 15 14 13 11 10 10 10 11 9 9 7 7 7 9 10 9 11 13 14 15 16
64 56 51 56 64 63 61 60 56 52 48 42 35 32 34 34 33 28 22 20 17 18 17 16 15 13 11 11 10 9 10 8 9 9 10 11 11 13 14 14 14 14 14
65 61 54 56 65 65 62 60 57 53 49 42 38 34 35 36 34 29 24 24 23 20 19 17 16 15 15 13 11 12 12 10 11 12 11 12 13 11 10 12 13 14 14
68 65 58 58 58 66 65 63 59 55 52 49 44 38 34 34 33 29 27 25 25 22 19 19 17 17 16 16 15 16 13 12 11 10 10 12 13 10 7 9 10 11 14
75 66 64 60 55 63 64 61 56 57 57 57 52 44 34 32 34 31 31 31 26 23 21 21 20 20 20 20 17 17 16 16 16 14 14 13 10 5 2 7 11 16 19
81 76 68 65 65 62 63 58 56 53 53 56 47 44 38 33 34 32 34 31 25 24 24 24 23 23 23 22 21 20 22 22 20 18 19 14 10 9 12 10 14 16 23
82 80 77 73 73 70 63 64 66 62 57 52 48 45 46 38 34 38 37 31 31 30 30 27 25 25 25 25 24 25 26 22 20 22 23 19 13 6 8 13 16 21 27
81 84 82 78 75 76 69 71 72 70 65 63 60 56 55 46 39 40 39 35 36 35 32 30 28 28 26 24 22 24 30 22 22 24 20 17 14 8 12 18 17 31 27
86 85 85 85 83 83 80 83 81 83 70 66 66 61 58 54 46 43 43 42 41 40 35 33 31 27 26 20 26 26 27 25 13 21 21 17 8 9 15 20 23 32 30
71 80 91 90 87 86 85 85 87 83 74 67 68 67 66 59 50 47 47 47 47 44 40 37 30 30 27 27 30 28 25 18 10 4 9 18 15 19 21 23 28 29 33
81 78 82 90 93 88 85 81 90 81 72 75 77 76 71 66 57 53 48 45 46 47 46 37 29 32 36 35 37 32 13 14 16 17 22 25 25 25 24 26 28 31 34
52 82 87 88 90 90 87 86 86 95 98 95 88 85 79 70 62 56 51 47 45 45 44 37 36 41 40 44 43 43 44 40 23 19 30 32 30 22 18 24 27 37 39
46 57 84 92 92 96 94 89 86 88 89 81 79 83 87 76 69 65 55 54 49 48 43 44 43 47 50 50 44 45 45 47 45 53 26 17 11 15 22 30 37 25 18
28 33 70 80 85 94 93 94 89 85 82 78 78 70 82 85 79 76 62 57 55 51 51 49 52 53 51 52 54 54 55 46 44 27 20 15 18 20 24 26 17 17 23
Wind_Direction_850mb
180 184 181 180 177 176 169 154 146 139 143 143 140 138 138 125 110 102 105 111 113 115 107 109 108 101 104 104 108 102 94 95 97 103 94 98 86 75 80 86 90 87 85
170 182 182 180 179 177 170 157 152 146 150 151 150 147 141 131 115 108 114 117 114 113 112 108 105 102 104 109 109 105 100 96 91 95 101 87 88 79 74 79 79 78 76
175 176 181 180 180 177 170 160 159 154 161 161 157 151 146 134 118 122 124 121 118 119 115 113 110 108 108 111 112 105 99 99 96 92 91 88 80 78 75 75 77 74 72
176 176 179 180 181 177 170 162 161 162 166 169 162 155 150 143 124 135 134 126 119 120 117 116 113 113 115 118 115 110 101 88 96 92 85 80 72 70 70 72 74 78 79
183 178 178 181 182 177 171 166 166 172 172 172 163 166 163 146 134 143 138 134 125 122 126 122 120 118 119 121 121 118 116 110 86 90 78 73 69 62 60 58 57 55 51
183 179 179 179 179 177 173 171 167 167 174 175 180 177 174 159 149 160 156 145 136 139 131 131 124 121 119 118 120 114 97 98 81 78 76 68 64 58 48 43 40 40 35
182 180 178 175 175 176 175 176 177 178 185 183 174 175 180 180 178 188 178 158 147 137 135 128 124 121 117 115 113 111 101 87 78 74 73 58 52 44 34 25 15 11 9
186 181 178 175 173 176 176 178 181 184 183 182 182 190 198 209 209 187 184 173 163 152 139 132 127 120 119 122 121 121 123 111 96 63 70 61 37 28 11 2 354 350 350
187 185 181 177 177 179 180 181 181 182 186 190 194 202 220 227 218 197 178 181 180 168 155 145 136 133 133 134 133 132 116 84 72 21 34 32 12 4 353 344 345 341 337
187 191 185 183 183 183 182 186 184 187 197 205 207 214 222 233 236 220 201 190 190 185 174 166 161 160 164 166 165 159 162 102 25 332 343 354 358 357 351 343 336 336 334
192 192 192 190 188 188 188 190 193 201 205 212 224 228 231 231 227 222 211 210 202 202 194 194 195 199 197 192 184 198 197 206 251 291 320 342 346 346 342 343 340 333 328
196 192 198 197 193 192 194 196 200 206 214 221 228 232 230 223 220 223 222 214 209 208 209 214 211 212 205 198 194 207 220 238 265 275 303 307 321 328 327 324 326 325 322
202 199 197 204 201 199 200 201 206 212 219 224 227 226 220 216 212 214 217 211 208 208 221 224 222 219 210 210 218 228 242 255 270 292 300 296 306 311 312 311 315 317 318
205 207 205 206 205 205 206 208 212 215 216 220 218 214 215 215 216 214 211 216 221 224 223 228 228 230 228 242 252 266 272 274 281 282 285 296 304 308 308 308 312 314 312
210 210 209 204 206 208 208 210 211 214 216 217 216 216 217 220 223 221 222 231 232 226 223 228 228 232 237 252 264 266 267 275 281 287 295 300 304 306 312 326 334 331 327
216 216 213 208 208 209 210 210 212 214 216 217 219 217 215 222 229 233 233 238 230 227 225 227 231 236 245 252 255 264 267 266 268 278 292 297 307 312 340 340 332 337 335
218 221 218 215 210 213 211 209 213 221 216 220 218 216 214 221 227 233 235 236 232 231 233 236 242 246 251 258 258 255 259 265 267 268 275 285 284 234 301 325 324 319 319
219 222 220 219 217 216 216 208 213 224 218 217 221 218 214 222 225 226 225 229 229 232 238 243 247 253 259 260 260 259 259 265 269 272 275 268 259 232 246 284 314 311 314
220 220 221 221 221 220 221 213 215 220 220 222 222 224 226 224 226 228 227 226 227 231 236 240 246 254 256 260 264 268 276 275 266 271 270 247 241 195 278 302 307 322 314
222 224 222 222 225 223 224 217 218 220 218 219 220 223 225 222 227 234 232 229 230 233 237 243 250 256 261 264 278 282 289 296 282 269 257 238 218 274 290 305 307 323 317
221 223 222 222 225 222 223 221 217 219 217 218 221 224 231 233 235 236 234 231 232 237 242 247 250 253 255 263 272 286 290 307 269 272 235 211 178 305 294 302 302 314 305
227 224 227 224 224 225 226 226 222 221 223 221 223 226 228 234 234 236 235 234 235 238 240 243 246 246 251 245 255 269 285 285 265 187 213 206 228 253 253 271 294 296 298
235 227 228 227 226 224 227 225 227 223 222 223 225 225 225 231 235 235 236 237 238 240 241 242 238 248 255 257 248 246 244 232 218 249 228 223 232 237 249 264 285 299 305
256 234 234 231 229 227 225 225 225 226 225 232 229 224 225 229 234 236 237 238 238 237 235 236 240 245 253 251 249 246 243 253 257 247 222 222 219 237 268 286 303 306 299
267 248 235 234 234 231 226 227 227 229 237 235 230 229 226 226 231 236 239 238 239 234 234 235 240 245 250 251 248 251 251 251 259 261 223 188 215 259 287 302 302 295 282
244 262 234 236 238 235 234 229 230 233 236 233 231 231 228 224 229 235 232 235 243 237 236 240 242 243 243 247 249 253 258 264 257 236 201 236 269 288 299 299 285 291 303